Location: Julian California
(33.0790°N, 116.6010°W)
Time: 09:02:29
(UTC-07:00)

Cosmos 1697 Rocket - Pass Details

Date: 28 March 2019
Orbit: 834 x 842 km, 71.0° (Epoch: 20 April)

Event Time Altitude Azimuth Distance (km) Brightness Sun altitude
Rises 05:23:21 0° 332° (NNW) 3,384 5.7 -16.6°
Reaches altitude 10° 05:25:52 10° 326° (NW) 2,446 4.9 -16.1°
Maximum altitude 05:31:11 46° 255° (WSW) 1,113 2.9 -15.0°
Drops below altitude 10° 05:36:28 10° 183° (S) 2,429 4.9 -13.9°
Sets 05:38:59 0° 177° (S) 3,359 5.7 -13.4°
